Regional Weather Roundup
Issued by NWS

Home | Current Version | Previous Version | Text Only | Print | Product List | Glossary Off
Versions: 1 2 3 4 5 6 7 8 9 10 11 12 13 14 15 16 17 18 19 20 21 22 23 24 25 26 27 28 29 30 31 32 33 34 35 36 37 38 39 40 41 42 43 44 45 46 47 48 49 50

000
ASUS43 KDTX 231701
RWRMI
MICHIGAN HOURLY REGIONAL WEATHER ROUNDUP
NATIONAL WEATHER SERVICE DETROIT/PONTIAC MI
100 PM EDT SAT AUG 23 2014

NOTE: "FAIR" INDICATES FEW OR NO CLOUDS BELOW 12,000 FEET WITH NO
SIGNIFICANT WEATHER AND/OR OBSTRUCTION TO VISIBILITY.

MIZ047>049-052>055-059>063-066>070-074>076-081>083-231800-
SOUTHEAST LOWER MICHIGAN

CITY           SKY/WX    TMP DP  RH WIND       PRES   REMARKS
ADRIAN         SUNNY     79  63  57 E8        30.06F
ALMA           CLOUDY    73  66  80 NE7       30.09S
ANN ARBOR      SUNNY     80  67  64 E8        30.06S
BAD AXE        CLOUDY    73  68  86 NE6       30.10F
CARO           PTSUNNY   73  66  78 NE3       30.08F
DETROIT CITY   CLOUDY    72  66  81 E6        30.08F HAZE
DETROIT        CLOUDY    73  66  78 E6        30.07F HAZE
FLINT          MOSUNNY   78  64  61 VRB7      30.08S
GROSSE ILE     PTSUNNY   75  68  78 E5        30.05F
HILLSDALE      PTSUNNY   79  70  74 E7        30.06F
HOWELL         MOSUNNY   77  64  65 N5        30.06S

CITY           SKY/WX    TMP DP  RH WIND       PRES   REMARKS
JACKSON        SUNNY     82  66  58 VRB5      30.06F
LAMBERTVILLE   SUNNY     79  66  65 E6        30.06S
LANSING        SUNNY     79  63  57 NE9       30.07S
LAPEER         CLOUDY    67  63  85 NE7       30.10S
MASON          SUNNY     78  64  62 E5        30.06F
MONROE         CLOUDY    73  66  78 E5        30.05S HAZE
MT. CLEMENS    PTSUNNY   72  65  79 CALM      30.06F
PONTIAC        PTSUNNY   75  65  70 E9        30.07S
PORT HOPE        N/A     67  63  87 NE5       30.09S
PORT HURON     PTSUNNY   73  68  83 CALM      30.08F
TRI CITIES     CLOUDY    72  64  76 NE10      30.10S
TROY           CLOUDY    71  65  80 NE7       30.10S
SAGINAW HB     CLOUDY    72  66  83 E7        30.09S
$$
MIZ043>046-050>051-056>058-064>065-071>073-077>080-231800-
SOUTHWEST LOWER MICHIGAN

CITY           SKY/WX    TMP DP  RH WIND       PRES   REMARKS
BATTLE CREEK   MOSUNNY   80  68  66 E8        30.06S
BENTON HARBOR  PTSUNNY   79  72  79 SE7       30.03S
BIG RAPIDS     SUNNY     78  65  65 SE10      30.08R
COLDWATER      CLOUDY    81  69  68 E5        30.04F
FREMONT        FAIR      80  58  46 SE9       30.06R
HOLLAND        PTSUNNY   80  70  71 E8        30.05R
GRAND RAPIDS   PTSUNNY   80  67  64 E13       30.06F
IONIA          FAIR      76  64  67 E9        30.07S
KALAMAZOO      CLOUDY    81  69  67 E8        30.04S
LUDINGTON      MOSUNNY   80  66  62 E6        30.05S
MARSHALL       MOSUNNY   79  67  68 NE6       30.05F
MOUNT PLEASANT MOSUNNY   75  64  68 E8        30.08F
MUSKEGON       PTSUNNY   81  65  58 E12       30.05R
SOUTH HAVEN    CLOUDY    80  74  81 SE7       30.03S
$$
MIZ016>042-231800-
NORTHERN LOWER MICHIGAN

CITY           SKY/WX    TMP DP  RH WIND       PRES   REMARKS
ALPENA         CLOUDY    72  65  78 VRB7      30.12F
BEAVER ISLAND  MOSUNNY   73  65  78 E8        30.10S
BELLAIRE       SUNNY     81  61  50 E7        30.07S
CADILLAC       SUNNY     80  65  60 NE6       30.08S
CHARLEVOIX     MOSUNNY   79  65  61 E12       30.12S
FRANKFORT      PTSUNNY   83  63  50 SE6       30.05S
GAYLORD        MOSUNNY   73  62  68 E8        30.12S
GRAYLING       MOSUNNY   77  63  63 E7        30.11F
HARBOR SPRINGS CLOUDY    76  65  68 E8        30.11S
HOUGHTON LAKE  MOSUNNY   78  63  59 E8        30.10F
MANISTEE       SUNNY     81  63  54 SE9       30.05F
OSCODA         CLOUDY    68  64  89 NE8       30.10F
PELLSTON       CLOUDY    74  65  73 SE9       30.12S
ROGERS CITY    CLOUDY    67  66  98 NE8       30.14S
TRAVERSE CITY  MOSUNNY   82  63  52 NE7       30.05S
$$
MIZ007>008-015-231800-
EASTERN UPPER MICHIGAN

CITY           SKY/WX    TMP DP  RH WIND       PRES   REMARKS
KINROSS        CLOUDY    70  66  88 E10       30.13F
MACKINAC ISLAN FOG       65  65 100 E7        30.12F VSB 1/2
NEWBERRY       PTSUNNY   75  64  69 E6        30.10F
S. S. MARIE    CLOUDY    70  64  81 E8        30.13F
$$
MIZ004>006-011>014-085-231800-
CENTRAL UPPER MICHIGAN

CITY           SKY/WX    TMP DP  RH WIND       PRES   REMARKS
MANISTIQUE     CLOUDY    71  65  81 E6        30.09F
ESCANABA       CLOUDY    66  64  94 NE8       30.08F
MENOMINEE      CLOUDY    72  64  78 E7        30.04S
SAWYER-GWINN   RAIN      68  66  94 SE7       30.09F
$$
MIZ001>003-009>011-084-231800-
WESTERN UPPER MICHIGAN

CITY           SKY/WX    TMP DP  RH WIND       PRES   REMARKS
IRON MOUNTAIN  CLOUDY    69  67  93 E7        30.06R FOG
HOUGHTON       CLOUDY    67  63  87 E8        30.08S
COPPER HARBOR    N/A     67  58  72 SE7       30.07F
$$

ABBREVIATIONS USED IN REMARKS
   TC - TEMPERATURE IN CELSIUS
  WCI - WIND CHILL INDEX
   HX - HEAT INDEX
  VSB - VISIBILITY



USA.gov is the U.S. government's official web portal to all federal, state and local government web resources and services.